TimeEST,TemperatureF,Dew PointF,Humidity,Sea Level PressureIn,VisibilityMPH,Wind Direction,Wind SpeedMPH,Gust SpeedMPH,PrecipitationIn,Events,Conditions,WindDirDegrees,DateUTC
12:53 AM,57.9,48.9,72,30.10,10.0,North,13.8,-,N/A,,Clear,360,2012-11-23 05:53:00
1:53 AM,57.0,50.0,77,30.10,10.0,North,11.5,-,N/A,,Clear,350,2012-11-23 06:53:00
2:53 AM,57.0,51.1,81,30.09,10.0,North,11.5,-,N/A,,Clear,350,2012-11-23 07:53:00
3:53 AM,57.0,51.1,81,30.09,10.0,North,10.4,-,N/A,,Clear,350,2012-11-23 08:53:00
4:53 AM,57.0,51.1,81,30.08,10.0,North,12.7,-,N/A,,Clear,350,2012-11-23 09:53:00
5:53 AM,55.9,51.1,84,30.10,10.0,North,10.4,-,N/A,,Clear,360,2012-11-23 10:53:00
6:53 AM,55.0,51.1,86,30.12,10.0,Variable,4.6,-,N/A,,Clear,0,2012-11-23 11:53:00
7:53 AM,60.1,52.0,75,30.13,10.0,North,11.5,-,N/A,,Clear,350,2012-11-23 12:53:00
8:53 AM,64.9,53.1,65,30.14,10.0,North,12.7,-,N/A,,Clear,360,2012-11-23 13:53:00
9:53 AM,70.0,55.0,59,30.15,10.0,North,12.7,-,N/A,,Clear,360,2012-11-23 14:53:00
10:53 AM,73.0,55.0,53,30.15,10.0,North,11.5,-,N/A,,Clear,350,2012-11-23 15:53:00
11:53 AM,73.9,55.9,53,30.13,10.0,North,15.0,20.7,N/A,,Clear,360,2012-11-23 16:53:00
12:53 PM,75.9,55.9,50,30.10,10.0,NNW,12.7,19.6,N/A,,Clear,340,2012-11-23 17:53:00
1:53 PM,77.0,55.9,48,30.07,10.0,NNW,11.5,17.3,N/A,,Clear,330,2012-11-23 18:53:00
2:53 PM,77.0,57.0,50,30.06,10.0,NNW,12.7,-,N/A,,Clear,330,2012-11-23 19:53:00
3:53 PM,75.9,55.9,50,30.06,10.0,North,12.7,-,N/A,,Partly Cloudy,350,2012-11-23 20:53:00
4:53 PM,73.0,54.0,51,30.06,10.0,North,13.8,-,N/A,,Clear,350,2012-11-23 21:53:00
5:53 PM,71.1,53.1,53,30.08,10.0,North,9.2,-,N/A,,Mostly Cloudy,350,2012-11-23 22:53:00
6:53 PM,69.1,51.1,53,30.09,10.0,North,6.9,-,N/A,,Mostly Cloudy,350,2012-11-23 23:53:00
7:53 PM,66.9,51.1,57,30.10,10.0,North,6.9,-,N/A,,Mostly Cloudy,10,2012-11-24 00:53:00
8:53 PM,64.9,51.1,61,30.11,10.0,North,5.8,-,N/A,,Mostly Cloudy,10,2012-11-24 01:53:00
9:53 PM,63.0,51.1,65,30.12,10.0,North,8.1,-,N/A,,Partly Cloudy,350,2012-11-24 02:53:00
10:53 PM,60.1,52.0,75,30.11,10.0,North,6.9,-,N/A,,Clear,350,2012-11-24 03:53:00
11:53 PM,59.0,51.1,75,30.10,10.0,NNW,4.6,-,N/A,,Clear,330,2012-11-24 04:53:00